Year,Month,Day,Hour,Minute,Value (Times are PST for temperature in C)
2021,08,07,11,31,17.10
2021,08,07,11,32,17.20
2021,08,07,11,33,17.30
2021,08,07,11,34,17.30
2021,08,07,11,35,17.30
2021,08,07,11,36,17.20
2021,08,07,11,37,17.10
2021,08,07,11,38,17.00
2021,08,07,11,39,17.00
2021,08,07,11,40,17.00
2021,08,07,11,41,17.00
2021,08,07,11,42,17.00
2021,08,07,11,43,17.10
2021,08,07,11,44,17.10
2021,08,07,11,45,17.10
2021,08,07,11,46,17.20
2021,08,07,11,47,17.20
2021,08,07,11,48,17.10
2021,08,07,11,49,17.10
2021,08,07,11,50,17.20
2021,08,07,11,51,17.30
2021,08,07,11,52,17.30
2021,08,07,11,53,17.30
2021,08,07,11,54,17.30
2021,08,07,11,55,17.30
2021,08,07,11,56,17.30
2021,08,07,11,57,17.30
2021,08,07,11,58,17.30
2021,08,07,11,59,17.30
2021,08,07,12,00,17.20
2021,08,07,12,01,17.20
2021,08,07,12,02,17.20
2021,08,07,12,03,17.30
2021,08,07,12,04,17.30
2021,08,07,12,05,17.30
2021,08,07,12,06,17.30
2021,08,07,12,07,17.40
2021,08,07,12,08,17.40
2021,08,07,12,09,17.40
2021,08,07,12,10,17.30
2021,08,07,12,11,17.30
2021,08,07,12,12,17.30
2021,08,07,12,13,17.30
2021,08,07,12,14,17.30
2021,08,07,12,15,17.10
2021,08,07,12,16,17.00
2021,08,07,12,17,16.80
2021,08,07,12,18,16.70
2021,08,07,12,19,16.60
2021,08,07,12,20,16.60
2021,08,07,12,21,16.70
2021,08,07,12,22,16.70
2021,08,07,12,23,16.70
2021,08,07,12,24,16.70
2021,08,07,12,25,16.70
2021,08,07,12,26,16.90
2021,08,07,12,27,16.90
2021,08,07,12,28,16.80
2021,08,07,12,29,16.80
2021,08,07,12,30,16.80
2021,08,07,12,31,16.70
2021,08,07,12,32,16.70
2021,08,07,12,33,16.60
2021,08,07,12,34,16.60
2021,08,07,12,35,16.40
2021,08,07,12,36,16.40
2021,08,07,12,37,16.40
2021,08,07,12,38,16.50
2021,08,07,12,39,16.70
2021,08,07,12,40,16.70
2021,08,07,12,41,16.70
2021,08,07,12,42,16.60
2021,08,07,12,43,16.50
2021,08,07,12,44,16.60
2021,08,07,12,45,16.70
2021,08,07,12,46,16.70
2021,08,07,12,47,16.70
2021,08,07,12,48,16.80
2021,08,07,12,49,16.90
2021,08,07,12,50,16.90
2021,08,07,12,51,16.90
2021,08,07,12,52,16.90
2021,08,07,12,53,16.80
2021,08,07,12,54,16.70
2021,08,07,12,55,16.70
2021,08,07,12,56,16.60
2021,08,07,12,57,16.60
2021,08,07,12,58,16.70
2021,08,07,12,59,16.70
2021,08,07,13,00,16.60
2021,08,07,13,01,16.50
2021,08,07,13,02,16.40
2021,08,07,13,03,16.40
2021,08,07,13,04,16.40
2021,08,07,13,05,16.40
2021,08,07,13,06,16.40
2021,08,07,13,07,16.30
2021,08,07,13,08,16.30
2021,08,07,13,09,16.40
2021,08,07,13,10,16.40
2021,08,07,13,11,16.40
2021,08,07,13,12,16.40
2021,08,07,13,13,16.40
2021,08,07,13,14,16.40
2021,08,07,13,15,16.40
2021,08,07,13,16,16.40
2021,08,07,13,17,16.30
2021,08,07,13,18,16.30
2021,08,07,13,19,16.40
2021,08,07,13,20,16.40
2021,08,07,13,21,16.40
2021,08,07,13,22,16.40
2021,08,07,13,23,16.50
2021,08,07,13,24,16.40
2021,08,07,13,25,16.40
2021,08,07,13,26,16.40
2021,08,07,13,27,16.40
2021,08,07,13,28,16.50
2021,08,07,13,29,16.60
2021,08,07,13,30,16.60
2021,08,07,13,31,16.60
2021,08,07,13,32,16.60
2021,08,07,13,33,16.60
2021,08,07,13,34,16.60
2021,08,07,13,35,16.60
2021,08,07,13,36,16.60
2021,08,07,13,37,16.60
2021,08,07,13,38,16.70
2021,08,07,13,39,16.70
2021,08,07,13,40,16.70
2021,08,07,13,41,16.70
2021,08,07,13,42,16.70
2021,08,07,13,43,16.60
2021,08,07,13,44,16.60
2021,08,07,13,45,16.60
2021,08,07,13,46,16.50
2021,08,07,13,47,16.60
2021,08,07,13,48,16.60
2021,08,07,13,49,16.70
2021,08,07,13,50,16.60
2021,08,07,13,51,16.60
2021,08,07,13,52,16.60
2021,08,07,13,53,16.60
2021,08,07,13,54,16.60
2021,08,07,13,55,16.60
2021,08,07,13,56,16.60
2021,08,07,13,57,16.70
2021,08,07,13,58,16.70
2021,08,07,13,59,16.80
2021,08,07,14,00,16.90
2021,08,07,14,01,17.00
2021,08,07,14,02,17.00
2021,08,07,14,03,17.10
2021,08,07,14,04,17.10
2021,08,07,14,05,17.30
2021,08,07,14,06,17.30
2021,08,07,14,07,17.30
2021,08,07,14,08,17.40
2021,08,07,14,09,17.50
2021,08,07,14,10,17.50
2021,08,07,14,11,17.60
2021,08,07,14,12,17.70
2021,08,07,14,13,17.80
2021,08,07,14,14,18.00
2021,08,07,14,15,18.10
2021,08,07,14,16,18.30
2021,08,07,14,17,18.50
2021,08,07,14,18,18.60
2021,08,07,14,19,18.80
2021,08,07,14,20,18.90
2021,08,07,14,21,19.00
2021,08,07,14,22,19.10
2021,08,07,14,23,19.30
2021,08,07,14,24,19.50
2021,08,07,14,25,19.70
2021,08,07,14,26,19.80
2021,08,07,14,27,20.00
2021,08,07,14,28,20.20
2021,08,07,14,29,20.30
2021,08,07,14,30,20.50
2021,08,07,14,31,20.70
2021,08,07,14,32,20.80
2021,08,07,14,33,20.90
2021,08,07,14,34,21.00
2021,08,07,14,35,21.10
2021,08,07,14,36,21.20
2021,08,07,14,37,21.30
2021,08,07,14,38,21.30
2021,08,07,14,39,21.30
2021,08,07,14,40,21.40
2021,08,07,14,41,21.60
2021,08,07,14,42,21.70
2021,08,07,14,43,21.80
2021,08,07,14,44,21.80
2021,08,07,14,45,21.90
2021,08,07,14,46,22.00
2021,08,07,14,47,22.00
2021,08,07,14,48,22.10
2021,08,07,14,49,22.20
2021,08,07,14,50,22.20
2021,08,07,14,51,22.20
2021,08,07,14,52,22.20
2021,08,07,14,53,22.20
2021,08,07,14,54,22.20
2021,08,07,14,55,22.30
2021,08,07,14,56,22.30
2021,08,07,14,57,22.20
2021,08,07,14,58,22.20
2021,08,07,14,59,22.20
2021,08,07,15,00,22.30
2021,08,07,15,01,22.30
2021,08,07,15,02,22.30
2021,08,07,15,03,22.20
2021,08,07,15,04,22.20
2021,08,07,15,05,22.20
2021,08,07,15,06,22.10
2021,08,07,15,07,22.10
2021,08,07,15,08,22.10
2021,08,07,15,09,22.10
2021,08,07,15,10,22.10
2021,08,07,15,11,22.00
2021,08,07,15,12,22.10
2021,08,07,15,13,22.10
2021,08,07,15,14,22.10
2021,08,07,15,15,22.10
2021,08,07,15,16,22.20
2021,08,07,15,17,22.30
2021,08,07,15,18,22.30
2021,08,07,15,19,22.40
2021,08,07,15,20,22.40
2021,08,07,15,21,22.40
2021,08,07,15,22,22.30
2021,08,07,15,23,22.20
2021,08,07,15,24,22.10
2021,08,07,15,25,22.00
2021,08,07,15,26,21.80
2021,08,07,15,27,21.70
2021,08,07,15,28,21.60
2021,08,07,15,29,21.60
2021,08,07,15,30,21.60
2021,08,07,15,31,21.50
2021,08,07,15,32,21.40
2021,08,07,15,33,21.30
2021,08,07,15,34,21.30
2021,08,07,15,35,21.30
2021,08,07,15,36,21.30
2021,08,07,15,37,21.30
2021,08,07,15,38,21.30
2021,08,07,15,39,21.30
2021,08,07,15,40,21.30
2021,08,07,15,41,21.20
2021,08,07,15,42,21.20
2021,08,07,15,43,21.10
2021,08,07,15,44,21.10
2021,08,07,15,45,21.20
2021,08,07,15,46,21.10
2021,08,07,15,47,21.20
2021,08,07,15,48,21.10
2021,08,07,15,49,21.10
2021,08,07,15,50,21.10
2021,08,07,15,51,21.00
2021,08,07,15,52,21.00
2021,08,07,15,53,21.00
2021,08,07,15,54,20.90
2021,08,07,15,55,20.90
2021,08,07,15,56,20.80
2021,08,07,15,57,20.80
2021,08,07,15,58,20.80
2021,08,07,15,59,20.80
2021,08,07,16,00,20.80
2021,08,07,16,01,20.90
2021,08,07,16,02,20.90
2021,08,07,16,03,20.90
2021,08,07,16,04,20.90
2021,08,07,16,05,20.90
2021,08,07,16,06,20.90
2021,08,07,16,07,20.90
2021,08,07,16,08,21.00
2021,08,07,16,09,21.00
2021,08,07,16,10,21.00
2021,08,07,16,11,21.00
2021,08,07,16,12,21.00
2021,08,07,16,13,21.10
2021,08,07,16,14,21.10
2021,08,07,16,15,21.10
2021,08,07,16,16,21.20
2021,08,07,16,17,21.20
2021,08,07,16,18,21.20
2021,08,07,16,19,21.20
2021,08,07,16,20,21.20
2021,08,07,16,21,21.30
2021,08,07,16,22,21.30
2021,08,07,16,23,21.30
2021,08,07,16,24,21.30
2021,08,07,16,25,21.20
2021,08,07,16,26,21.20
2021,08,07,16,27,21.10
2021,08,07,16,28,21.10
2021,08,07,16,29,21.10
2021,08,07,16,30,21.20
2021,08,07,16,31,21.10
2021,08,07,16,32,21.10
2021,08,07,16,33,21.00
2021,08,07,16,34,21.00
2021,08,07,16,35,20.90
2021,08,07,16,36,20.90
2021,08,07,16,37,20.90
2021,08,07,16,38,20.90
2021,08,07,16,39,20.90
2021,08,07,16,40,20.90
2021,08,07,16,41,20.90
2021,08,07,16,42,20.90
2021,08,07,16,43,20.90
2021,08,07,16,44,20.90
2021,08,07,16,45,21.00
2021,08,07,16,46,21.00
2021,08,07,16,47,21.00
2021,08,07,16,48,21.00
2021,08,07,16,49,20.90
2021,08,07,16,50,21.00
2021,08,07,16,51,21.00
2021,08,07,16,52,21.00
2021,08,07,16,53,21.10
2021,08,07,16,54,21.10
2021,08,07,16,55,21.10
2021,08,07,16,56,21.10
2021,08,07,16,57,21.00
2021,08,07,16,58,21.00
2021,08,07,16,59,21.00
2021,08,07,17,00,20.90
2021,08,07,17,01,20.90
2021,08,07,17,02,20.80
2021,08,07,17,03,20.80
2021,08,07,17,04,20.80
2021,08,07,17,05,20.80
2021,08,07,17,06,20.80
2021,08,07,17,07,20.80
2021,08,07,17,08,20.80
2021,08,07,17,09,20.80
2021,08,07,17,10,20.70
2021,08,07,17,11,20.70
2021,08,07,17,12,20.80
2021,08,07,17,13,20.80
2021,08,07,17,14,20.80
2021,08,07,17,15,20.80
2021,08,07,17,16,20.80
2021,08,07,17,17,20.90
2021,08,07,17,18,20.90
2021,08,07,17,19,21.00
2021,08,07,17,20,21.00
2021,08,07,17,21,21.00
2021,08,07,17,22,21.10
2021,08,07,17,23,21.10
2021,08,07,17,24,21.20
2021,08,07,17,25,21.10
2021,08,07,17,26,21.10
2021,08,07,17,27,21.10
2021,08,07,17,28,21.10
2021,08,07,17,29,21.10
2021,08,07,17,30,21.10
2021,08,07,17,31,21.10
2021,08,07,17,32,21.20
2021,08,07,17,33,21.30
2021,08,07,17,34,21.30
2021,08,07,17,35,21.30
2021,08,07,17,36,21.30
2021,08,07,17,37,21.20
2021,08,07,17,38,21.20
2021,08,07,17,39,21.10
2021,08,07,17,40,21.10
2021,08,07,17,41,21.10
2021,08,07,17,42,21.10
2021,08,07,17,43,21.10
2021,08,07,17,44,21.00
2021,08,07,17,45,21.00
2021,08,07,17,46,21.00
2021,08,07,17,47,20.90
2021,08,07,17,48,20.90
2021,08,07,17,49,20.90
2021,08,07,17,50,20.90
2021,08,07,17,51,20.80
2021,08,07,17,52,20.80
2021,08,07,17,53,20.80
2021,08,07,17,54,20.80
2021,08,07,17,55,20.80
2021,08,07,17,56,20.80
2021,08,07,17,57,20.80
2021,08,07,17,58,20.70
2021,08,07,17,59,20.70
2021,08,07,18,00,20.70
2021,08,07,18,01,20.70
2021,08,07,18,02,20.60
2021,08,07,18,03,20.60
2021,08,07,18,04,20.60
2021,08,07,18,05,20.50
2021,08,07,18,06,20.40
2021,08,07,18,07,20.30
2021,08,07,18,08,20.30
2021,08,07,18,09,20.30
2021,08,07,18,10,20.30
2021,08,07,18,11,20.30
2021,08,07,18,12,20.20
2021,08,07,18,13,20.20
2021,08,07,18,14,20.20
2021,08,07,18,15,20.20
2021,08,07,18,16,20.20
2021,08,07,18,17,20.20
2021,08,07,18,18,20.20
2021,08,07,18,19,20.20
2021,08,07,18,20,20.20
2021,08,07,18,21,20.20
2021,08,07,18,22,20.20
2021,08,07,18,23,20.20
2021,08,07,18,24,20.20
2021,08,07,18,25,20.20
2021,08,07,18,26,20.20
2021,08,07,18,27,20.20
2021,08,07,18,28,20.20
2021,08,07,18,29,20.20
2021,08,07,18,30,20.10
2021,08,07,18,31,19.90
2021,08,07,18,32,19.90
2021,08,07,18,33,19.80
2021,08,07,18,34,19.80
2021,08,07,18,35,19.70
2021,08,07,18,36,19.60
2021,08,07,18,37,19.60
2021,08,07,18,38,19.50
2021,08,07,18,39,19.50
2021,08,07,18,40,19.50
2021,08,07,18,41,19.50
2021,08,07,18,42,19.40
2021,08,07,18,43,19.40
2021,08,07,18,44,19.30
2021,08,07,18,45,19.30
2021,08,07,18,46,19.30
2021,08,07,18,47,19.30
2021,08,07,18,48,19.20
2021,08,07,18,49,19.20
2021,08,07,18,50,19.10
2021,08,07,18,51,19.10
2021,08,07,18,52,19.10
2021,08,07,18,53,19.20
2021,08,07,18,54,19.20
2021,08,07,18,55,19.20
2021,08,07,18,56,19.20
2021,08,07,18,57,19.20
2021,08,07,18,58,19.20
2021,08,07,18,59,19.20
2021,08,07,19,00,19.20
2021,08,07,19,01,19.20
2021,08,07,19,02,19.20
2021,08,07,19,03,19.20
2021,08,07,19,04,19.20
2021,08,07,19,05,19.20
2021,08,07,19,06,19.20
2021,08,07,19,07,19.20
2021,08,07,19,08,19.20
2021,08,07,19,09,19.20
